Погода в Саме

Погода в Саме : погода сейчас, прогноз погоды и архив. Всё, что Вы хотите узнать о погоде в Саме!

Поиск расширенной информации на нашем сайте:

Другие новости

Новости СМИ2

Главная страница сайта

Новости сайта

03.07.2017

Напоминаем, что на нашем специализированном сайте Метеоцентр.Азия вы можете получить высокодетализированные автоматические прогнозы погоды по пунктам России, СНГ и мира в авиационном формате (включающие направление и скорость ветра, видимость, явления погоды, количество и форму облачности, нижнюю и верхнюю границу облачности).


Погода в Саме - сегодня

Время (UTC), дата Ветер
(°,м/с) 
Видим.   Явления Облачность Т
(°С)
Тd
(°С)
f(%) Тe
(°С)
Pmin
(гПа)
dP
(гПа)
Po
(мм)
O2
(г/м3)
Тmin Tmax R s Состояние
почвы
12 21.04.18 270 (З) 20000 м    9/3 1000 м средняя, верхняя 
[Cu med, cong|Ac trans|Cs]
+17.6 +2.1 35 +17  1005.6  0.3  746  282           
15 21.04.18 270 (З) 20000 м    9/9 1000 м 
[Sc]
+14.9 +4.1 48 +15  1006.6  0.8  748  284    +19.8       
18 21.04.18 270 (З) н/о    8/8 1000 м 
[Sc]
+12.4 +4 56 +12  1007  748  287    +19.8       
21 21.04.18 270 (З) н/о    ясно 
+7.3 +3.6 77 +7  1008.5  749  293           
00 22.04.18 270 (З) н/о    9/9 1000 м 
[Sc]
+7.4 +5.5 88 +7  1008.8  0.3  749  293           
06 22.04.18 270 (З) 20000 м    9/9 1000 м 
[Sc diur, vesp]
+13.5 +5.9 60 +14  1009.8  0.3  750  286  +6.7         
09 22.04.18 250 (З) 20000 м    9/9 1000 м 
[Sc diur, vesp]
+16.9 +1.9 36 +17  1008.8  -0.9  749  283           
12 22.04.18 270 (З) 20000 м    4/3 1000 м верхняя 
[Cu med, cong|Ci fib]
+17.7 -1.9 26 +17  1008.1  -0.6  748  283           
15 22.04.18 270 (З) 20000 м    3/3 1000 м 
[Sc diur, vesp]
+16.5 -2.7 27 +17  1008.7  0.5  749  284    +18.1       
18 22.04.18 230 (ЮЗ) н/о    ясно 
+10.2 -1.7 43 +11  1009.7  0.8  750  291    +18.1       
21 22.04.18 тихо ()   н/о    ясно 
+7.7 -0.2 57 +8  1010.2  0.4  750  293           
00 23.04.18 270 (З) н/о    ясно 
+6.9 +0.6 64 +7  1009.8  750  294           
03 23.04.18 250 (З) 20000 м    8/0 средняя 
[Ac cuf]
+8.2 +3 70 +8  1010.4  0.2  750  292           
06 23.04.18 200 (Ю) 20000 м    8/0 средняя 
[Ac cuf]
+12.1 +4.5 60 +12  1010.8  0.5  751  288  +5.2         
09 23.04.18 200 (Ю) 20000 м    8/0 средняя 
[Ac cuf]
+17.3 +2.3 37 +18  1009.9  -0.6  750  283           
12 23.04.18 270 (З) 20000 м    8/0 средняя 
[Ac cuf]
+17 +6.2 49 +17  1008.9  -1  749  283           
15 23.04.18 270 (З) 20000 м    8/0 средняя 
[Ac cuf]
+15.8 +6.8 55 +16  1009.2  0.2  750  284    +19       
18 23.04.18 270 (З) н/о    4/0 средняя 
[Ac lent]
+13.8 +7.3 65 +14  1010.9  1.6  751  286    +19       
21 23.04.18 270 (З) н/о    4/0 средняя 
[As trans]
+11.2 +6.4 72 +11  1011.8  0.8  751  289           
00 24.04.18 250 (З) н/о    ясно 
+5.4 +1.4 75 +5  1011.7  -0.3  751  296           
03 24.04.18 270 (З) 20000 м    8/8 600 м 
[Sc diur, vesp]
+8.6 +1.9 63 +8  1012.5  0.9  752  293           
06 24.04.18 290 (З) 20000 м    9/8 600 м кучево-дожд., верхняя 
[Cb cap|Ci fib]
+11.6 +2.7 54 +10  1014.5  2.1  753  290  +4.2         
09 24.04.18 320 (СЗ) 20000 м    10/10 600 м кучево-дожд. 
[Cb cap]
+11.2 -1.4 41 +10  1015.8  1.2  754  291           
12 24.04.18 270 (З) 20000 м    10/10 600 м кучево-дожд. 
[Cb cap]
+10.7 -0.5 46 +9  1017.3  1.5  755  293           
15 24.04.18 270 (З) 20000 м    3/3 1000 м 
[Sc diur, vesp]
+9.8 -3 40 +9  1018.5  1.3  756  294    +12.4       
Время (UTC), дата Ветер
(°,м/с) 
Видим.   Явления Облачность Т
(°С)
Тd
(°С)
f(%) Тe
(°С)
Pmin
(гПа)
dP
(гПа)
Po
(мм)
O2
(г/м3)
Тmin Tmax R s Состояние
почвы

Для получения пояснительной информации подведите курсор к названию столбца.

ПОГОДА в Саме - архив

Всё, что Вы хотите узнать о погоде в Саме - удобно и подробно!

Выберите нужную дату (начиная с 1 января 2015* года) и нажмите кнопку "Найти".
Будут отображены архивные сводки погоды по пункту Сам, начиная с указанной даты.


Отображать данные в формате CSV (для использования в таблицах Excel)


Внимание! Наш архив погоды предназначен исключительно для личного некоммерческого использования в познавательных целях. Если Вам необходимы официальные справки о состоянии погоды (для производственных, юридических, коммерческих и т.п. целей), обращайтесь в органы Росгидромета.

*Примечание: данная дата относится к архиву по метеостанциям СССР (Россия, СНГ, Балтия).
Архив по метеостанциям Зарубежной Европы и Азии (кроме Китая) хранится 10 дней, по другим регионам земного шара (Китай, Африка, Америка, Австралия, Океания) - 1 день.

Сам - район местоположения метеостанции


Название, широта, долгота, высота метеостанции:
Сам 45.4°ш. 56.1°д. 82 м над ур. моря [Казахстан]

Дополнительная информация

В oтличие oт бoльшинства пoгoдных сайтoв мы публикуем пoдрoбную метеoинфoрмацию в детальнoм прoфессиoнальнoм фoрмате.

Характеристики температуры и влажнoсти вoздуха измеряются на высoте 2 м в тени вдали oт зданий и деревьев.
Скoрoсть ветра измеряется на высoте 10 м (на урoвне рoста челoвека скoрoсть ветра ниже в 1.5-2 раза). Если метеoстанция нахoдится в гoрoде или в лесу, тo скoрoсть ветра занижена на 2-4 м/с пo сравнению с oткрытым местoм. Скoрoсть ветра над акватoриями крупных рек и oзёр, а также на вершинах хoлмoв на 2-5 м/с выше, чем в oбычных услoвиях.
Атмoсфернoе давление в разных тoчках местнoсти мoжет значительнo oтличаться oт давления на метеoстанции, в зависимoсти oт услoвий рельефа (при пoдъёме на 10 м давление пoнижается примернo на 1 мм рт.ст.).